Year,Month,Day,Hour,Minute,Value (Times are PST for temperature in C)
2007,11,15,00,00,9.00
2007,11,15,00,01,9.00
2007,11,15,00,02,9.00
2007,11,15,00,03,9.00
2007,11,15,00,04,9.00
2007,11,15,00,05,9.00
2007,11,15,00,06,9.00
2007,11,15,00,07,9.00
2007,11,15,00,08,9.00
2007,11,15,00,09,9.00
2007,11,15,00,10,9.10
2007,11,15,00,11,9.10
2007,11,15,00,12,9.10
2007,11,15,00,13,9.00
2007,11,15,00,14,9.00
2007,11,15,00,15,9.00
2007,11,15,00,16,9.10
2007,11,15,00,17,9.10
2007,11,15,00,18,9.10
2007,11,15,00,19,9.10
2007,11,15,00,20,9.10
2007,11,15,00,21,9.10
2007,11,15,00,22,9.10
2007,11,15,00,23,9.10
2007,11,15,00,24,9.10
2007,11,15,00,25,9.10
2007,11,15,00,26,9.10
2007,11,15,00,27,9.10
2007,11,15,00,28,9.20
2007,11,15,00,29,9.20
2007,11,15,00,30,9.20
2007,11,15,00,31,9.20
2007,11,15,00,32,9.10
2007,11,15,00,33,9.10
2007,11,15,00,34,9.10
2007,11,15,00,35,9.10
2007,11,15,00,36,9.10
2007,11,15,00,37,9.10
2007,11,15,00,38,9.10
2007,11,15,00,39,9.10
2007,11,15,00,40,9.20
2007,11,15,00,41,9.20
2007,11,15,00,42,9.20
2007,11,15,00,43,9.20
2007,11,15,00,44,9.20
2007,11,15,00,45,9.20
2007,11,15,00,46,9.20
2007,11,15,00,47,9.20
2007,11,15,00,48,9.30
2007,11,15,00,49,9.30
2007,11,15,00,50,9.30
2007,11,15,00,51,9.30
2007,11,15,00,52,9.30
2007,11,15,00,53,9.30
2007,11,15,00,54,9.30
2007,11,15,00,55,9.30
2007,11,15,00,56,9.30
2007,11,15,00,57,9.30
2007,11,15,00,58,9.30
2007,11,15,00,59,9.30
2007,11,15,01,00,9.40
2007,11,15,01,01,9.40
2007,11,15,01,02,9.40
2007,11,15,01,03,9.40
2007,11,15,01,04,9.40
2007,11,15,01,05,9.40
2007,11,15,01,06,9.40
2007,11,15,01,07,9.40
2007,11,15,01,08,9.40
2007,11,15,01,09,9.40
2007,11,15,01,10,9.50
2007,11,15,01,11,9.50
2007,11,15,01,12,9.50
2007,11,15,01,13,9.50
2007,11,15,01,14,9.50
2007,11,15,01,15,9.50
2007,11,15,01,16,9.50
2007,11,15,01,17,9.60
2007,11,15,01,18,9.60
2007,11,15,01,19,9.60
2007,11,15,01,20,9.60
2007,11,15,01,21,9.60
2007,11,15,01,22,9.60
2007,11,15,01,23,9.60
2007,11,15,01,24,9.60
2007,11,15,01,25,9.60
2007,11,15,01,26,9.60
2007,11,15,01,27,9.60
2007,11,15,01,28,9.60
2007,11,15,01,29,9.60
2007,11,15,01,30,9.60
2007,11,15,01,31,9.60
2007,11,15,01,32,9.60
2007,11,15,01,33,9.60
2007,11,15,01,34,9.60
2007,11,15,01,35,9.60
2007,11,15,01,36,9.60
2007,11,15,01,37,9.60
2007,11,15,01,38,9.60
2007,11,15,01,39,9.60
2007,11,15,01,40,9.60
2007,11,15,01,41,9.60
2007,11,15,01,42,9.60
2007,11,15,01,43,9.60
2007,11,15,01,44,9.70
2007,11,15,01,45,9.70
2007,11,15,01,46,9.70
2007,11,15,01,47,9.70
2007,11,15,01,48,9.70
2007,11,15,01,49,9.60
2007,11,15,01,50,9.60
2007,11,15,01,51,9.70
2007,11,15,01,52,9.70
2007,11,15,01,53,9.70
2007,11,15,01,54,9.70
2007,11,15,01,55,9.70
2007,11,15,01,56,9.70
2007,11,15,01,57,9.70
2007,11,15,01,58,9.70
2007,11,15,01,59,9.70
2007,11,15,02,00,9.70
2007,11,15,02,01,9.70
2007,11,15,02,02,9.70
2007,11,15,02,03,9.70
2007,11,15,02,04,9.70
2007,11,15,02,05,9.70
2007,11,15,02,06,9.70
2007,11,15,02,07,9.70
2007,11,15,02,08,9.70
2007,11,15,02,09,9.70
2007,11,15,02,10,9.70
2007,11,15,02,11,9.70
2007,11,15,02,12,9.80
2007,11,15,02,13,9.80
2007,11,15,02,14,9.80
2007,11,15,02,15,9.80
2007,11,15,02,16,9.80
2007,11,15,02,17,9.80
2007,11,15,02,18,9.80
2007,11,15,02,19,9.80
2007,11,15,02,20,9.80
2007,11,15,02,21,9.80
2007,11,15,02,22,9.80
2007,11,15,02,23,9.80
2007,11,15,02,24,9.90
2007,11,15,02,25,9.90
2007,11,15,02,26,9.90
2007,11,15,02,27,9.90
2007,11,15,02,28,9.90
2007,11,15,02,29,9.90
2007,11,15,02,30,9.90
2007,11,15,02,31,9.90
2007,11,15,02,32,9.90
2007,11,15,02,33,9.90
2007,11,15,02,34,9.90
2007,11,15,02,35,9.90
2007,11,15,02,36,10.00
2007,11,15,02,37,9.90
2007,11,15,02,38,9.90
2007,11,15,02,39,9.90
2007,11,15,02,40,9.90
2007,11,15,02,41,9.90
2007,11,15,02,42,9.90
2007,11,15,02,43,9.90
2007,11,15,02,44,9.90
2007,11,15,02,45,9.90
2007,11,15,02,46,10.00
2007,11,15,02,47,10.00
2007,11,15,02,48,10.10
2007,11,15,02,49,10.10
2007,11,15,02,50,10.10
2007,11,15,02,51,10.20
2007,11,15,02,52,10.20
2007,11,15,02,53,10.20
2007,11,15,02,54,10.20
2007,11,15,02,55,10.20
2007,11,15,02,56,10.20
2007,11,15,02,57,10.20
2007,11,15,02,58,10.20
2007,11,15,02,59,10.20
2007,11,15,03,00,10.20
2007,11,15,03,01,10.20
2007,11,15,03,02,10.20
2007,11,15,03,03,10.20
2007,11,15,03,04,10.20
2007,11,15,03,05,10.20
2007,11,15,03,06,10.10
2007,11,15,03,07,10.10
2007,11,15,03,08,10.10
2007,11,15,03,09,10.10
2007,11,15,03,10,10.00
2007,11,15,03,11,10.00
2007,11,15,03,12,10.00
2007,11,15,03,13,10.00
2007,11,15,03,14,10.00
2007,11,15,03,15,10.00
2007,11,15,03,16,10.00
2007,11,15,03,17,10.00
2007,11,15,03,18,10.00
2007,11,15,03,19,10.00
2007,11,15,03,20,10.00
2007,11,15,03,21,10.10
2007,11,15,03,22,10.10
2007,11,15,03,23,10.10
2007,11,15,03,24,10.10
2007,11,15,03,25,10.10
2007,11,15,03,26,10.10
2007,11,15,03,27,10.10
2007,11,15,03,28,10.10
2007,11,15,03,29,10.20
2007,11,15,03,30,10.20
2007,11,15,03,31,10.20
2007,11,15,03,32,10.20
2007,11,15,03,33,10.20
2007,11,15,03,34,10.20
2007,11,15,03,35,10.20
2007,11,15,03,36,10.20
2007,11,15,03,37,10.20
2007,11,15,03,38,10.20
2007,11,15,03,39,10.30
2007,11,15,03,40,10.30
2007,11,15,03,41,10.30
2007,11,15,03,42,10.40
2007,11,15,03,43,10.40
2007,11,15,03,44,10.40
2007,11,15,03,45,10.40
2007,11,15,03,46,10.50
2007,11,15,03,47,10.50
2007,11,15,03,48,10.50
2007,11,15,03,49,10.50
2007,11,15,03,50,10.50
2007,11,15,03,51,10.50
2007,11,15,03,52,10.50
2007,11,15,03,53,10.60
2007,11,15,03,54,10.60
2007,11,15,03,55,10.60
2007,11,15,03,56,10.60
2007,11,15,03,57,10.70
2007,11,15,03,58,10.70
2007,11,15,03,59,10.70
2007,11,15,04,00,10.70
2007,11,15,04,01,10.70
2007,11,15,04,02,10.70
2007,11,15,04,03,10.70
2007,11,15,04,04,10.70
2007,11,15,04,05,10.70
2007,11,15,04,06,10.70
2007,11,15,04,07,10.70
2007,11,15,04,08,10.70
2007,11,15,04,09,10.70
2007,11,15,04,10,10.80
2007,11,15,04,11,10.70
2007,11,15,04,12,10.70
2007,11,15,04,13,10.70
2007,11,15,04,14,10.70
2007,11,15,04,15,10.70
2007,11,15,04,16,10.70
2007,11,15,04,17,10.70
2007,11,15,04,18,10.70
2007,11,15,04,19,10.70
2007,11,15,04,20,10.70
2007,11,15,04,21,10.70
2007,11,15,04,22,10.60
2007,11,15,04,23,10.60
2007,11,15,04,24,10.70
2007,11,15,04,25,10.70
2007,11,15,04,26,10.70
2007,11,15,04,27,10.70
2007,11,15,04,28,10.80
2007,11,15,04,29,10.80
2007,11,15,04,30,10.80
2007,11,15,04,31,10.80
2007,11,15,04,32,10.80
2007,11,15,04,33,10.90
2007,11,15,04,34,11.20
2007,11,15,04,35,11.40
2007,11,15,04,36,11.50
2007,11,15,04,37,11.60
2007,11,15,04,38,11.70
2007,11,15,04,39,11.70
2007,11,15,04,40,11.80
2007,11,15,04,41,11.80
2007,11,15,04,42,11.80
2007,11,15,04,43,11.70
2007,11,15,04,44,11.60
2007,11,15,04,45,11.60
2007,11,15,04,46,11.60
2007,11,15,04,47,11.70
2007,11,15,04,48,11.90
2007,11,15,04,49,12.00
2007,11,15,04,50,12.10
2007,11,15,04,51,12.20
2007,11,15,04,52,12.20
2007,11,15,04,53,12.20
2007,11,15,04,54,12.30
2007,11,15,04,55,12.30
2007,11,15,04,56,12.40
2007,11,15,04,57,12.50
2007,11,15,04,58,12.50
2007,11,15,04,59,12.50
2007,11,15,05,00,12.40
2007,11,15,05,01,12.40
2007,11,15,05,02,12.40
2007,11,15,05,03,12.40
2007,11,15,05,04,12.40
2007,11,15,05,05,12.40
2007,11,15,05,06,12.40
2007,11,15,05,07,12.40
2007,11,15,05,08,12.40
2007,11,15,05,09,12.40
2007,11,15,05,10,12.40
2007,11,15,05,11,12.40
2007,11,15,05,12,12.40
2007,11,15,05,13,12.40
2007,11,15,05,14,12.40
2007,11,15,05,15,12.40
2007,11,15,05,16,12.40
2007,11,15,05,17,12.40
2007,11,15,05,18,12.40
2007,11,15,05,19,12.40
2007,11,15,05,20,12.50
2007,11,15,05,21,12.50
2007,11,15,05,22,12.60
2007,11,15,05,23,12.60
2007,11,15,05,24,12.60
2007,11,15,05,25,12.60
2007,11,15,05,26,12.60
2007,11,15,05,27,12.60
2007,11,15,05,28,12.60
2007,11,15,05,29,12.60
2007,11,15,05,30,12.60
2007,11,15,05,31,12.60
2007,11,15,05,32,12.60
2007,11,15,05,33,12.60
2007,11,15,05,34,12.60
2007,11,15,05,35,12.60
2007,11,15,05,36,12.60
2007,11,15,05,37,12.60
2007,11,15,05,38,12.60
2007,11,15,05,39,12.60
2007,11,15,05,40,12.60
2007,11,15,05,41,12.60
2007,11,15,05,42,12.60
2007,11,15,05,43,12.60
2007,11,15,05,44,12.60
2007,11,15,05,45,12.60
2007,11,15,05,46,12.60
2007,11,15,05,47,12.60
2007,11,15,05,48,12.50
2007,11,15,05,49,12.50
2007,11,15,05,50,12.50
2007,11,15,05,51,12.50
2007,11,15,05,52,12.50
2007,11,15,05,53,12.50
2007,11,15,05,54,12.50
2007,11,15,05,55,12.60
2007,11,15,05,56,12.60
2007,11,15,05,57,12.50
2007,11,15,05,58,12.50
2007,11,15,05,59,12.50
2007,11,15,06,00,12.50
2007,11,15,06,01,12.50
2007,11,15,06,02,12.50
2007,11,15,06,03,12.50
2007,11,15,06,04,12.50
2007,11,15,06,05,12.50
2007,11,15,06,06,12.50
2007,11,15,06,07,12.50
2007,11,15,06,08,12.40
2007,11,15,06,09,12.50
2007,11,15,06,10,12.50
2007,11,15,06,11,12.50
2007,11,15,06,12,12.50
2007,11,15,06,13,12.50
2007,11,15,06,14,12.50
2007,11,15,06,15,12.50
2007,11,15,06,16,12.50
2007,11,15,06,17,12.40
2007,11,15,06,18,12.40
2007,11,15,06,19,12.40
2007,11,15,06,20,12.40
2007,11,15,06,21,12.40
2007,11,15,06,22,12.40
2007,11,15,06,23,12.30
2007,11,15,06,24,12.30
2007,11,15,06,25,12.30
2007,11,15,06,26,12.20
2007,11,15,06,27,12.20
2007,11,15,06,28,12.20
2007,11,15,06,29,12.20
2007,11,15,06,30,12.20
2007,11,15,06,31,12.20
2007,11,15,06,32,12.10
2007,11,15,06,33,12.10
2007,11,15,06,34,12.10
2007,11,15,06,35,12.10
2007,11,15,06,36,12.10
2007,11,15,06,37,12.10
2007,11,15,06,38,12.10
2007,11,15,06,39,12.00
2007,11,15,06,40,12.00
2007,11,15,06,41,12.00
2007,11,15,06,42,11.90
2007,11,15,06,43,11.90
2007,11,15,06,44,12.00
2007,11,15,06,45,11.90
2007,11,15,06,46,11.90
2007,11,15,06,47,11.90
2007,11,15,06,48,11.90
2007,11,15,06,49,11.90
2007,11,15,06,50,11.90
2007,11,15,06,51,11.90
2007,11,15,06,52,12.00
2007,11,15,06,53,12.00
2007,11,15,06,54,12.00
2007,11,15,06,55,12.00
2007,11,15,06,56,12.00
2007,11,15,06,57,12.00
2007,11,15,06,58,12.00
2007,11,15,06,59,12.00
2007,11,15,07,00,12.00
2007,11,15,07,01,12.00
2007,11,15,07,02,11.90
2007,11,15,07,03,11.90
2007,11,15,07,04,11.90
2007,11,15,07,05,11.90
2007,11,15,07,06,11.90
2007,11,15,07,07,11.80
2007,11,15,07,08,11.80
2007,11,15,07,09,11.80
2007,11,15,07,10,11.80
2007,11,15,07,11,11.80
2007,11,15,07,12,11.80
2007,11,15,07,13,11.80
2007,11,15,07,14,11.80
2007,11,15,07,15,11.80
2007,11,15,07,16,11.80
2007,11,15,07,17,11.80
2007,11,15,07,18,11.80
2007,11,15,07,19,11.80
2007,11,15,07,20,11.80
2007,11,15,07,21,11.80
2007,11,15,07,22,11.80
2007,11,15,07,23,11.80
2007,11,15,07,24,11.80
2007,11,15,07,25,11.80
2007,11,15,07,26,11.80
2007,11,15,07,27,11.80
2007,11,15,07,28,11.80
2007,11,15,07,29,11.80
2007,11,15,07,30,11.80
2007,11,15,07,31,11.80
2007,11,15,07,32,11.80
2007,11,15,07,33,11.80
2007,11,15,07,34,11.80
2007,11,15,07,35,11.70
2007,11,15,07,36,11.70
2007,11,15,07,37,11.70
2007,11,15,07,38,11.70
2007,11,15,07,39,11.70
2007,11,15,07,40,11.80
2007,11,15,07,41,11.80
2007,11,15,07,42,11.80
2007,11,15,07,43,11.80
2007,11,15,07,44,11.80
2007,11,15,07,45,11.80
2007,11,15,07,46,11.80
2007,11,15,07,47,11.70
2007,11,15,07,48,11.70
2007,11,15,07,49,11.80
2007,11,15,07,50,11.80
2007,11,15,07,51,11.80
2007,11,15,07,52,11.90
2007,11,15,07,53,11.90
2007,11,15,07,54,11.90
2007,11,15,07,55,11.90
2007,11,15,07,56,11.90
2007,11,15,07,57,11.90
2007,11,15,07,58,11.90
2007,11,15,07,59,11.80
2007,11,15,08,00,11.80
2007,11,15,08,01,11.90
2007,11,15,08,02,11.90
2007,11,15,08,03,11.90
2007,11,15,08,04,11.90
2007,11,15,08,05,11.90
2007,11,15,08,06,11.90
2007,11,15,08,07,11.90
2007,11,15,08,08,11.90
2007,11,15,08,09,11.80
2007,11,15,08,10,11.90
2007,11,15,08,11,11.90
2007,11,15,08,12,11.90
2007,11,15,08,13,11.90
2007,11,15,08,14,11.90
2007,11,15,08,15,12.00
2007,11,15,08,16,12.00
2007,11,15,08,17,12.00
2007,11,15,08,18,12.00
2007,11,15,08,19,12.00
2007,11,15,08,20,12.00
2007,11,15,08,21,12.10
2007,11,15,08,22,12.10
2007,11,15,08,23,12.10
2007,11,15,08,24,12.20
2007,11,15,08,25,12.20
2007,11,15,08,26,12.10
2007,11,15,08,27,12.10
2007,11,15,08,28,12.10
2007,11,15,08,29,12.00
2007,11,15,08,30,12.00
2007,11,15,08,31,11.90
2007,11,15,08,32,11.90
2007,11,15,08,33,11.90
2007,11,15,08,34,11.80
2007,11,15,08,35,11.80
2007,11,15,08,36,11.80
2007,11,15,08,37,11.80
2007,11,15,08,38,11.70
2007,11,15,08,39,11.70
2007,11,15,08,40,11.70
2007,11,15,08,41,11.70
2007,11,15,08,42,11.80
2007,11,15,08,43,11.80
2007,11,15,08,44,11.80
2007,11,15,08,45,11.80
2007,11,15,08,46,11.80
2007,11,15,08,47,11.80
2007,11,15,08,48,11.80
2007,11,15,08,49,11.80
2007,11,15,08,50,11.70
2007,11,15,08,51,11.70
2007,11,15,08,52,11.80
2007,11,15,08,53,11.80
2007,11,15,08,54,11.80
2007,11,15,08,55,11.90
2007,11,15,08,56,11.90
2007,11,15,08,57,11.90
2007,11,15,08,58,11.90
2007,11,15,08,59,11.90
2007,11,15,09,00,12.00
2007,11,15,09,01,12.00
2007,11,15,09,02,12.10
2007,11,15,09,03,12.10
2007,11,15,09,04,12.10
2007,11,15,09,05,12.20
2007,11,15,09,06,12.20
2007,11,15,09,07,12.20
2007,11,15,09,08,12.20
2007,11,15,09,09,12.30
2007,11,15,09,10,12.30
2007,11,15,09,11,12.30
2007,11,15,09,12,12.40
2007,11,15,09,13,12.40
2007,11,15,09,14,12.40
2007,11,15,09,15,12.50
2007,11,15,09,16,12.60
2007,11,15,09,17,12.60
2007,11,15,09,18,12.60
2007,11,15,09,19,12.70
2007,11,15,09,20,12.70
2007,11,15,09,21,12.70
2007,11,15,09,22,12.60
2007,11,15,09,23,12.60
2007,11,15,09,24,12.60
2007,11,15,09,25,12.60
2007,11,15,09,26,12.60
2007,11,15,09,27,12.60
2007,11,15,09,28,12.60
2007,11,15,09,29,12.50
2007,11,15,09,30,12.50
2007,11,15,09,31,12.50
2007,11,15,09,32,12.50
2007,11,15,09,33,12.40
2007,11,15,09,34,12.40
2007,11,15,09,35,12.40
2007,11,15,09,36,12.40
2007,11,15,09,37,12.40
2007,11,15,09,38,12.30
2007,11,15,09,39,12.30
2007,11,15,09,40,12.40
2007,11,15,09,41,12.40
2007,11,15,09,42,12.30
2007,11,15,09,43,12.30
2007,11,15,09,44,12.30
2007,11,15,09,45,12.30
2007,11,15,09,46,12.30
2007,11,15,09,47,12.30
2007,11,15,09,48,12.30
2007,11,15,09,49,12.30
2007,11,15,09,50,12.30
2007,11,15,09,51,12.30
2007,11,15,09,52,12.30
2007,11,15,09,53,12.20
2007,11,15,09,54,12.20
2007,11,15,09,55,12.20
2007,11,15,09,56,12.20
2007,11,15,09,57,12.20
2007,11,15,09,58,12.20
2007,11,15,09,59,12.20
2007,11,15,10,00,12.20
2007,11,15,10,01,12.20
2007,11,15,10,02,12.20
2007,11,15,10,03,12.20
2007,11,15,10,04,12.20
2007,11,15,10,05,12.20
2007,11,15,10,06,12.20
2007,11,15,10,07,12.20
2007,11,15,10,08,12.20
2007,11,15,10,09,12.20
2007,11,15,10,10,12.20
2007,11,15,10,11,12.20
2007,11,15,10,12,12.20
2007,11,15,10,13,12.20
2007,11,15,10,14,12.20
2007,11,15,10,15,12.20
2007,11,15,10,16,12.20
2007,11,15,10,17,12.20
2007,11,15,10,18,12.20
2007,11,15,10,19,12.20
2007,11,15,10,20,12.20
2007,11,15,10,21,12.20
2007,11,15,10,22,12.20
2007,11,15,10,23,12.30
2007,11,15,10,24,12.20
2007,11,15,10,25,12.20
2007,11,15,10,26,12.20
2007,11,15,10,27,12.30
2007,11,15,10,28,12.30
2007,11,15,10,29,12.20
2007,11,15,10,30,12.20
2007,11,15,10,31,12.20
2007,11,15,10,32,12.20
2007,11,15,10,33,12.20
2007,11,15,10,34,12.20
2007,11,15,10,35,12.20
2007,11,15,10,36,12.20
2007,11,15,10,37,12.20
2007,11,15,10,38,12.20
2007,11,15,10,39,12.20
2007,11,15,10,40,12.20
2007,11,15,10,41,12.20
2007,11,15,10,42,12.20
2007,11,15,10,43,12.20
2007,11,15,10,44,12.20
2007,11,15,10,45,12.10
2007,11,15,10,46,12.10
2007,11,15,10,47,12.10
2007,11,15,10,48,12.00
2007,11,15,10,49,12.00
2007,11,15,10,50,11.90
2007,11,15,10,51,11.90
2007,11,15,10,52,11.80
2007,11,15,10,53,11.80
2007,11,15,10,54,11.70
2007,11,15,10,55,11.70
2007,11,15,10,56,11.70
2007,11,15,10,57,11.60
2007,11,15,10,58,11.60
2007,11,15,10,59,11.60
2007,11,15,11,00,11.50
2007,11,15,11,01,11.50
2007,11,15,11,02,11.40
2007,11,15,11,03,11.40
2007,11,15,11,04,11.40
2007,11,15,11,05,11.40
2007,11,15,11,06,11.40
2007,11,15,11,07,11.40
2007,11,15,11,08,11.40
2007,11,15,11,09,11.50
2007,11,15,11,10,11.50
2007,11,15,11,11,11.50
2007,11,15,11,12,11.40
2007,11,15,11,13,11.40
2007,11,15,11,14,11.40
2007,11,15,11,15,11.40
2007,11,15,11,16,11.40
2007,11,15,11,17,11.30
2007,11,15,11,18,11.30
2007,11,15,11,19,11.30
2007,11,15,11,20,11.30
2007,11,15,11,21,11.30
2007,11,15,11,22,11.30
2007,11,15,11,23,11.30
2007,11,15,11,24,11.40
2007,11,15,11,25,11.40
2007,11,15,11,26,11.40
2007,11,15,11,27,11.40
2007,11,15,11,28,11.40
2007,11,15,11,29,11.50
2007,11,15,11,30,11.50
2007,11,15,11,31,11.60
2007,11,15,11,32,11.60
2007,11,15,11,33,11.60
2007,11,15,11,34,11.60
2007,11,15,11,35,11.60
2007,11,15,11,36,11.70
2007,11,15,11,37,11.70
2007,11,15,11,38,11.70
2007,11,15,11,39,11.80
2007,11,15,11,40,11.80
2007,11,15,11,41,11.80
2007,11,15,11,42,11.80
2007,11,15,11,43,11.80
2007,11,15,11,44,11.80
2007,11,15,11,45,11.90
2007,11,15,11,46,11.90
2007,11,15,11,47,11.90
2007,11,15,11,48,11.90
2007,11,15,11,49,12.00
2007,11,15,11,50,12.00
2007,11,15,11,51,12.00
2007,11,15,11,52,12.00
2007,11,15,11,53,12.00
2007,11,15,11,54,12.00
2007,11,15,11,55,12.00
2007,11,15,11,56,12.00
2007,11,15,11,57,12.00
2007,11,15,11,58,12.00
2007,11,15,11,59,12.00
2007,11,15,12,00,12.10
2007,11,15,12,01,12.00
2007,11,15,12,02,12.10
2007,11,15,12,03,12.10
2007,11,15,12,04,12.10
2007,11,15,12,05,12.10
2007,11,15,12,06,12.10
2007,11,15,12,07,12.10
2007,11,15,12,08,12.10
2007,11,15,12,09,12.10
2007,11,15,12,10,12.10
2007,11,15,12,11,12.20
2007,11,15,12,12,12.20
2007,11,15,12,13,12.20
2007,11,15,12,14,12.20
2007,11,15,12,15,12.20
2007,11,15,12,16,12.30
2007,11,15,12,17,12.30
2007,11,15,12,18,12.30
2007,11,15,12,19,12.30
2007,11,15,12,20,12.30
2007,11,15,12,21,12.30
2007,11,15,12,22,12.30
2007,11,15,12,23,12.30
2007,11,15,12,24,12.30
2007,11,15,12,25,12.30
2007,11,15,12,26,12.30
2007,11,15,12,27,12.20
2007,11,15,12,28,12.20
2007,11,15,12,29,12.20
2007,11,15,12,30,12.20
2007,11,15,12,31,12.20
2007,11,15,12,32,12.20
2007,11,15,12,33,12.20
2007,11,15,12,34,12.20
2007,11,15,12,35,12.20
2007,11,15,12,36,12.20
2007,11,15,12,37,12.10
2007,11,15,12,38,12.00
2007,11,15,12,39,11.90
2007,11,15,12,40,11.80
2007,11,15,12,41,11.80
2007,11,15,12,42,11.80
2007,11,15,12,43,11.90
2007,11,15,12,44,12.00
2007,11,15,12,45,12.10
2007,11,15,12,46,12.10
2007,11,15,12,47,12.10
2007,11,15,12,48,12.20
2007,11,15,12,49,12.10
2007,11,15,12,50,12.10
2007,11,15,12,51,12.10
2007,11,15,12,52,12.10
2007,11,15,12,53,12.10
2007,11,15,12,54,12.10
2007,11,15,12,55,12.10
2007,11,15,12,56,12.10
2007,11,15,12,57,12.10
2007,11,15,12,58,12.10
2007,11,15,12,59,12.10
2007,11,15,13,00,12.10
2007,11,15,13,01,12.10
2007,11,15,13,02,12.10
2007,11,15,13,03,12.10
2007,11,15,13,04,12.10
2007,11,15,13,05,12.10
2007,11,15,13,06,12.10
2007,11,15,13,07,12.10
2007,11,15,13,08,12.10
2007,11,15,13,09,12.10
2007,11,15,13,10,12.10
2007,11,15,13,11,12.10
2007,11,15,13,12,12.10
2007,11,15,13,13,12.10
2007,11,15,13,14,12.00
2007,11,15,13,15,12.00
2007,11,15,13,16,12.00
2007,11,15,13,17,12.00
2007,11,15,13,18,11.90
2007,11,15,13,19,11.90
2007,11,15,13,20,11.90
2007,11,15,13,21,11.90
2007,11,15,13,22,11.90
2007,11,15,13,23,11.90
2007,11,15,13,24,11.80
2007,11,15,13,25,11.80
2007,11,15,13,26,11.80
2007,11,15,13,27,11.80
2007,11,15,13,28,11.80
2007,11,15,13,29,11.80
2007,11,15,13,30,11.80
2007,11,15,13,31,11.80
2007,11,15,13,32,11.80
2007,11,15,13,33,11.80
2007,11,15,13,34,11.80
2007,11,15,13,35,11.70
2007,11,15,13,36,11.70
2007,11,15,13,37,11.70
2007,11,15,13,38,11.70
2007,11,15,13,39,11.70
2007,11,15,13,40,11.60
2007,11,15,13,41,11.60
2007,11,15,13,42,11.60
2007,11,15,13,43,11.60
2007,11,15,13,44,11.60
2007,11,15,13,45,11.50
2007,11,15,13,46,11.50
2007,11,15,13,47,11.50
2007,11,15,13,48,11.50
2007,11,15,13,49,11.40
2007,11,15,13,50,11.40
2007,11,15,13,51,11.40
2007,11,15,13,52,11.40
2007,11,15,13,53,11.40
2007,11,15,13,54,11.40
2007,11,15,13,55,11.40
2007,11,15,13,56,11.40
2007,11,15,13,57,11.40
2007,11,15,13,58,11.40
2007,11,15,13,59,11.30
2007,11,15,14,00,11.30
2007,11,15,14,01,11.30
2007,11,15,14,02,11.30
2007,11,15,14,03,11.30
2007,11,15,14,04,11.30
2007,11,15,14,05,11.20
2007,11,15,14,06,11.20
2007,11,15,14,07,11.20
2007,11,15,14,08,11.20
2007,11,15,14,09,11.20
2007,11,15,14,10,11.10
2007,11,15,14,11,11.10
2007,11,15,14,12,11.10
2007,11,15,14,13,11.10
2007,11,15,14,14,11.00
2007,11,15,14,15,11.00
2007,11,15,14,16,11.00
2007,11,15,14,17,10.90
2007,11,15,14,18,10.90
2007,11,15,14,19,10.90
2007,11,15,14,20,10.90
2007,11,15,14,21,10.80
2007,11,15,14,22,10.80
2007,11,15,14,23,10.80
2007,11,15,14,24,10.70
2007,11,15,14,25,10.60
2007,11,15,14,26,10.50
2007,11,15,14,27,10.40
2007,11,15,14,28,10.40
2007,11,15,14,29,10.30
2007,11,15,14,30,10.20
2007,11,15,14,31,10.20
2007,11,15,14,32,10.10
2007,11,15,14,33,10.10
2007,11,15,14,34,10.00
2007,11,15,14,35,10.00
2007,11,15,14,36,9.90
2007,11,15,14,37,9.90
2007,11,15,14,38,9.80
2007,11,15,14,39,9.80
2007,11,15,14,40,9.80
2007,11,15,14,41,9.80
2007,11,15,14,42,9.80
2007,11,15,14,43,9.80
2007,11,15,14,44,9.80
2007,11,15,14,45,9.70
2007,11,15,14,46,9.70
2007,11,15,14,47,9.70
2007,11,15,14,48,9.70
2007,11,15,14,49,9.70
2007,11,15,14,50,9.70
2007,11,15,14,51,9.70
2007,11,15,14,52,9.70
2007,11,15,14,53,9.70
2007,11,15,14,54,9.70
2007,11,15,14,55,9.70
2007,11,15,14,56,9.70
2007,11,15,14,57,9.70
2007,11,15,14,58,9.70
2007,11,15,14,59,9.70
2007,11,15,15,00,9.70
2007,11,15,15,01,9.70
2007,11,15,15,02,9.70
2007,11,15,15,03,9.70
2007,11,15,15,04,9.70
2007,11,15,15,05,9.70
2007,11,15,15,06,9.70
2007,11,15,15,07,9.70
2007,11,15,15,08,9.70
2007,11,15,15,09,9.70
2007,11,15,15,10,9.70
2007,11,15,15,11,9.70
2007,11,15,15,12,9.70
2007,11,15,15,13,9.70
2007,11,15,15,14,9.70
2007,11,15,15,15,9.70
2007,11,15,15,16,9.70
2007,11,15,15,17,9.70
2007,11,15,15,18,9.70
2007,11,15,15,19,9.70
2007,11,15,15,20,9.70
2007,11,15,15,21,9.60
2007,11,15,15,22,9.60
2007,11,15,15,23,9.60
2007,11,15,15,24,9.60
2007,11,15,15,25,9.60
2007,11,15,15,26,9.60
2007,11,15,15,27,9.60
2007,11,15,15,28,9.60
2007,11,15,15,29,9.60
2007,11,15,15,30,9.60
2007,11,15,15,31,9.60
2007,11,15,15,32,9.60
2007,11,15,15,33,9.60
2007,11,15,15,34,9.60
2007,11,15,15,35,9.60
2007,11,15,15,36,9.60
2007,11,15,15,37,9.60
2007,11,15,15,38,9.60
2007,11,15,15,39,9.60
2007,11,15,15,40,9.60
2007,11,15,15,41,9.50
2007,11,15,15,42,9.60
2007,11,15,15,43,9.50
2007,11,15,15,44,9.60
2007,11,15,15,45,9.60
2007,11,15,15,46,9.60
2007,11,15,15,47,9.60
2007,11,15,15,48,9.60
2007,11,15,15,49,9.60
2007,11,15,15,50,9.60
2007,11,15,15,51,9.60
2007,11,15,15,52,9.60
2007,11,15,15,53,9.60
2007,11,15,15,54,9.60
2007,11,15,15,55,9.60
2007,11,15,15,56,9.60
2007,11,15,15,57,9.60
2007,11,15,15,58,9.60
2007,11,15,15,59,9.60
2007,11,15,16,00,9.60
2007,11,15,16,01,9.60
2007,11,15,16,02,9.60
2007,11,15,16,03,9.60
2007,11,15,16,04,9.60
2007,11,15,16,05,9.60
2007,11,15,16,06,9.60
2007,11,15,16,07,9.50
2007,11,15,16,08,9.50
2007,11,15,16,09,9.50
2007,11,15,16,10,9.50
2007,11,15,16,11,9.50
2007,11,15,16,12,9.50
2007,11,15,16,13,9.50
2007,11,15,16,14,9.50
2007,11,15,16,15,9.50
2007,11,15,16,16,9.50
2007,11,15,16,17,9.50
2007,11,15,16,18,9.50
2007,11,15,16,19,9.50
2007,11,15,16,20,9.50
2007,11,15,16,21,9.50
2007,11,15,16,22,9.50
2007,11,15,16,23,9.50
2007,11,15,16,24,9.50
2007,11,15,16,25,9.50
2007,11,15,16,26,9.40
2007,11,15,16,27,9.40
2007,11,15,16,28,9.40
2007,11,15,16,29,9.40
2007,11,15,16,30,9.40
2007,11,15,16,31,9.40
2007,11,15,16,32,9.40
2007,11,15,16,33,9.40
2007,11,15,16,34,9.40
2007,11,15,16,35,9.40
2007,11,15,16,36,9.40
2007,11,15,16,37,9.40
2007,11,15,16,38,9.40
2007,11,15,16,39,9.40
2007,11,15,16,40,9.40
2007,11,15,16,41,9.40
2007,11,15,16,42,9.40
2007,11,15,16,43,9.40
2007,11,15,16,44,9.40
2007,11,15,16,45,9.40
2007,11,15,16,46,9.40
2007,11,15,16,47,9.40
2007,11,15,16,48,9.40
2007,11,15,16,49,9.40
2007,11,15,16,50,9.40
2007,11,15,16,51,9.30
2007,11,15,16,52,9.30
2007,11,15,16,53,9.30
2007,11,15,16,54,9.30
2007,11,15,16,55,9.30
2007,11,15,16,56,9.30
2007,11,15,16,57,9.30
2007,11,15,16,58,9.30
2007,11,15,16,59,9.30
2007,11,15,17,00,9.30
2007,11,15,17,01,9.30
2007,11,15,17,02,9.30
2007,11,15,17,03,9.30
2007,11,15,17,04,9.30
2007,11,15,17,05,9.30
2007,11,15,17,06,9.30
2007,11,15,17,07,9.30
2007,11,15,17,08,9.30
2007,11,15,17,09,9.30
2007,11,15,17,10,9.30
2007,11,15,17,11,9.30
2007,11,15,17,12,9.30
2007,11,15,17,13,9.30
2007,11,15,17,14,9.30
2007,11,15,17,15,9.20
2007,11,15,17,16,9.20
2007,11,15,17,17,9.20
2007,11,15,17,18,9.20
2007,11,15,17,19,9.20
2007,11,15,17,20,9.20
2007,11,15,17,21,9.20
2007,11,15,17,22,9.20
2007,11,15,17,23,9.20
2007,11,15,17,24,9.20
2007,11,15,17,25,9.20
2007,11,15,17,26,9.20
2007,11,15,17,27,9.20
2007,11,15,17,28,9.20
2007,11,15,17,29,9.20
2007,11,15,17,30,9.20
2007,11,15,17,31,9.20
2007,11,15,17,32,9.20
2007,11,15,17,33,9.20
2007,11,15,17,34,9.20